Showing default

METHANESAT, 59101

Orbit data source: Space-Track

METHANESAT, 59101 is a payload satellite owned by MethaneSAT (US) in SSO that was launched on Mon, 04 Mar 2024 UTC via an FALCON 9 launch vehicle from the Air Force Western Test Range (AFWTR). Payload-class satellites include a variety of spacecraft equipped with specific instruments for various scientific and technological missions. These include communications satellites like Starlink; space stations such as the ISS; scientific satellites like the Hubble; Earth observation satellites from companies like Planet Labs, Umbra, and HawkEye 360; GPS; miniature CubeSats for education and research; and military/defense satellites.

Loading next visibility...
Identifier
59101, 2024-043D
Orbit
SSO
Country
Flag of USUS
Related business
Manufacturer
Blue Canyon
Mission
Non-operational Amateur Earth Obs Sci
Bus & Motor
SATURN X-SAT, NANO-R3
Mass
362 kg wet, 326 kg dry
Launch date (UTC)
2024-03-04 (3 years ago)
Launch vehicle
FALCON 9
Launch site
Air Force Western Test Range (AFWTR)
Object type
Payload
Rocket body
Debris
Shape & HBR
Box + 2 Pan, 5.5 m
Radar Cross Section
2.251 m², Large (>1 m²)

Expand to show TLE details & history
Last TLE update: 11 hours ago

TLE from 11 hours ago
0 METHANESAT
1 59101U 24043D   26256.34926096  .00001124  00000-0  99128-4 0  9990
2 59101  97.8566  27.9089 0011171  74.7425 285.5031 14.98437776137858
Epoch: 2026-09-13T08:22Z
TLE epoch observation values (Epoch: 2026-09-13T08:22:56.146Z)
Latitude
-0.00008°
Longitude
-90.17022°
Altitude
572.703 km
Speed
7.576 km/s
True Right ascension
01h 51m 38s
True Declination
0° 00' 00"
Sunlit
Object was in full shadow at epoch
Visualization orbit readout
Latitude
Unknown
Longitude
Unknown
Altitude
Unknown
Speed
Unknown
Apparent Right ascension
Unknown
Apparent Declination
Unknown
Sunlit
N/A
Visualization observer readout
Local Sidereal Time
11:52:31
Azimuth
Unknown
Elevation
Unknown
Doppler factor
Unknown
Orbital elements
Apogee altitude
576.497 km
Perigee altitude
560.977 km
Semi-major axis
6,946.874 km
Eccentricity
0.00112
Inclination
97.8566°
RAAN
27.9089°
Arg. of periapsis
74.7425°
True anomaly
285.3797°
Mean anomaly
285.5031°
Eccentric anomaly
285.44141°
Mean motion
3.74851 °/min
Orbital period
96.04 mins
BSTAR
0.000099128
Loading maneuver chart data...
Computing Atmospheric mass density...
Loading historical data...
Loading historical data...
Loading historical data...
Loading historical data...
Loading historical data...
Loading historical data...
Loading historical data...

Documentation

Showing up to 5 results
|